El Paso, TX

12:54 PM MDT on June 28, 2017 (GMT -0600)
El Paso International

Weather History for KELP - October, 2013

Change the Weather History Date:

Sunday, October 27, 2013

  Actual Average Record
Temperature  
Mean Temperature 62 °F 61 °F  
Max Temperature 77 °F 74 °F 87 °F (1979)
Min Temperature 47 °F 48 °F 26 °F (1908)
Degree Days  
Heating Degree Days 3 5  
Month to date heating degree days 50 58  
Since 1 July heating degree days 50 62  
Cooling Degree Days 0 1  
Month to date cooling degree days 74 80  
Year to date cooling degree days 2689 2326  
Growing Degree Days 14 (Base 50)    
Moisture  
Dew Point 38 °F    
Average Humidity 44    
Maximum Humidity 61    
Minimum Humidity 27    
Precipitation  
Precipitation 0.00 in 0.02 in 1.13 in (1998)
Month to date precipitation 0.00 0.54  
Year to date precipitation 9.15 8.37  
Snow  
Snow 0.00 in - - ()
Month to date snowfall 0.0  
Since 1 July snowfall T  
Since 1 September snowfall 0.0  
Snow Depth 0.00 in    
Sea Level Pressure  
Sea Level Pressure 29.96 in    
Wind  
Wind Speed 4 mph (NNE)    
Max Wind Speed 10 mph    
Max Gust Speed 12 mph    
Visibility 10 miles    
Events      
T = Trace of Precipitation, MM = Missing Value Source: NWS Daily Summary

Daily Weather History Graph

Daily Weather History Graph

Search for Another Location

Airport or City:

Trip Planner

Search our weather history database for the weather conditions in past years. The results will help you decide how hot, cold, wet, or windy it might be!

Date:

Astronomy

Oct. 27, 2013 Rise Set
Actual Time 7:18 AM MDT 6:20 PM MDT
Civil Twilight 6:53 AM MDT 6:45 PM MDT
Nautical Twilight 6:24 AM MDT 7:13 PM MDT
Astronomical Twilight 5:55 AM MDT 7:42 PM MDT
Moon 12:41 AM MDT (10/27) 2:08 PM MDT (10/27)
Length of Visible Light 11h 52m
Length of Day
11h 02m
Last Quarter, 43% of the Moon is Illuminated
Oct 27
Last Quarter
Nov 3
New
Nov 9
First Quarter
Nov 17
Full
Nov 25
Last Quarter

Hourly Weather History & Observations

Time (MDT) Temp. Dew Point Humidity Pressure Visibility Wind Dir Wind Speed Gust Speed Precip Events Conditions
12:51 AM 59.0 °F 37.9 °F 46% 30.07 in 10.0 mi Calm Calm - N/A   Clear
1:51 AM 57.9 °F 37.0 °F 46% 30.05 in 10.0 mi North 5.8 mph - N/A   Clear
2:51 AM 55.0 °F 37.9 °F 53% 30.05 in 10.0 mi North 6.9 mph - N/A   Clear
3:51 AM 54.0 °F 37.0 °F 53% 30.04 in 10.0 mi North 4.6 mph - N/A   Clear
4:51 AM 50.0 °F 37.0 °F 61% 30.05 in 10.0 mi East 3.5 mph - N/A   Partly Cloudy
5:51 AM 51.1 °F 37.0 °F 59% 30.05 in 10.0 mi NNE 3.5 mph - N/A   Partly Cloudy
6:51 AM 50.0 °F 36.0 °F 59% 30.05 in 10.0 mi NNE 4.6 mph - N/A   Partly Cloudy
7:51 AM 50.0 °F 36.0 °F 59% 30.07 in 10.0 mi NNE 4.6 mph - N/A   Scattered Clouds
8:51 AM 55.0 °F 37.0 °F 51% 30.08 in 10.0 mi NNE 3.5 mph - N/A   Scattered Clouds
9:51 AM 61.0 °F 37.0 °F 41% 30.07 in 10.0 mi North 3.5 mph - N/A   Scattered Clouds
10:51 AM 63.0 °F 37.0 °F 38% 30.05 in 10.0 mi ESE 5.8 mph - N/A   Scattered Clouds
11:51 AM 66.9 °F 37.9 °F 34% 30.01 in 10.0 mi Calm Calm - N/A   Scattered Clouds
12:51 PM 70.0 °F 37.9 °F 31% 29.96 in 10.0 mi ENE 4.6 mph - N/A   Scattered Clouds
1:51 PM 70.0 °F 39.0 °F 32% 29.91 in 10.0 mi Variable 3.5 mph - N/A   Scattered Clouds
2:51 PM 73.0 °F 39.0 °F 29% 29.88 in 10.0 mi ENE 4.6 mph - N/A   Scattered Clouds
3:51 PM 75.0 °F 39.0 °F 27% 29.84 in 10.0 mi Calm Calm - N/A   Scattered Clouds
4:51 PM 75.0 °F 39.9 °F 28% 29.83 in 10.0 mi SSW 3.5 mph - N/A   Scattered Clouds
5:51 PM 75.0 °F 39.9 °F 28% 29.81 in 10.0 mi Calm Calm - N/A   Scattered Clouds
6:51 PM 71.1 °F 39.9 °F 32% 29.82 in 10.0 mi North 4.6 mph - N/A   Partly Cloudy
7:51 PM 69.1 °F 39.9 °F 35% 29.83 in 10.0 mi North 3.5 mph - N/A   Clear
8:51 PM 64.9 °F 39.9 °F 40% 29.84 in 10.0 mi NE 6.9 mph - N/A   Clear
9:51 PM 59.0 °F 39.9 °F 49% 29.84 in 10.0 mi ENE 4.6 mph - N/A   Clear
10:51 PM 60.1 °F 39.9 °F 47% 29.83 in 10.0 mi North 3.5 mph - N/A   Clear
11:51 PM 61.0 °F 39.9 °F 46% 29.80 in 10.0 mi Calm Calm - N/A   Partly Cloudy